W5CWT-13 Weather Reports


Display with metric or nautical units.
time (UTC)temp
F
wind
direction
speed
MPH
gust
MPH
rain 1hr
in
rain 24hr
in
rain mn
in
humidity
%
barometer
mb
20181210000022 45 0.0 0.0 0.00 0.00 0.00 86 1026.8
20181209235532 45 0.0 0.0 0.00 0.00 0.00 86 1026.8
20181209235024 45 0.0 0.0 0.00 0.00 0.00 85 1026.8
20181209234534 45 0.0 0.0 0.00 0.00 0.00 85 1026.8
20181209234025 45 0.0 0.0 0.00 0.00 0.00 85 1026.7
20181209233518 46 0.0 0.0 0.00 0.00 0.00 84 1026.6
20181209233027 46 0.0 0.0 0.00 0.00 0.00 83 1026.6
20181209232527 46 0.0 0.0 0.00 0.00 0.00 83 1026.5
20181209232025 47 0.0 0.0 0.00 0.00 0.00 83 1026.5
20181209231525 47 247 0.0 1.0 0.00 0.00 0.00 82 1026.5
20181209231023 47 0.0 1.0 0.00 0.00 0.00 82 1026.5
20181209230521 47 225 0.0 1.0 0.00 0.00 0.00 82 1026.5
20181209230019 47 281 1.0 2.0 0.00 0.00 0.00 82 1026.5
20181209225517 48 275 2.0 4.0 0.00 0.00 0.00 82 1026.5
20181209225016 48 242 2.0 4.0 0.00 0.00 0.00 82 1026.4
20181209224520 48 270 2.0 3.0 0.00 0.00 0.00 81 1026.4
20181209224026 48 273 3.0 4.0 0.00 0.00 0.00 80 1026.4
20181209223518 48 273 4.0 5.0 0.00 0.00 0.00 80 1026.3
20181209223029 48 304 4.0 6.0 0.00 0.00 0.00 79 1026.3
20181209222521 48 300 4.0 5.0 0.00 0.00 0.00 79 1026.3
20181209222032 48 292 5.0 7.0 0.00 0.00 0.00 79 1026.3
20181209221525 49 291 3.0 4.0 0.00 0.00 0.00 78 1026.2
20181209221018 49 286 3.0 4.0 0.00 0.00 0.00 78 1026.1
20181209220529 49 307 4.0 6.0 0.00 0.00 0.00 78 1026.1
20181209220021 49 283 4.0 7.0 0.00 0.00 0.00 78 1026.0
20181209215532 49 301 4.0 6.0 0.00 0.00 0.00 78 1026.0
20181209215025 49 304 5.0 8.0 0.00 0.00 0.00 78 1026.0
20181209214518 49 304 6.0 8.0 0.00 0.00 0.00 78 1026.0
20181209214029 49 306 6.0 8.0 0.00 0.00 0.00 78 1026.0
20181209213522 49 331 5.0 7.0 0.00 0.00 0.00 78 1026.0
20181209213026 49 336 5.0 6.0 0.00 0.01 0.00 78 1026.0
20181209212519 49 349 4.0 6.0 0.00 0.01 0.00 78 1026.0
20181209212029 49 3 5.0 9.0 0.00 0.01 0.00 77 1026.0
20181209211522 49 302 5.0 7.0 0.00 0.01 0.00 77 1025.9
20181209211033 49 315 4.0 5.0 0.00 0.01 0.00 78 1025.9
20181209210526 48 31 3.0 5.0 0.00 0.01 0.00 78 1025.9
20181209210030 48 293 3.0 6.0 0.00 0.01 0.00 79 1025.9
20181209205523 49 327 5.0 7.0 0.00 0.01 0.00 78 1025.9
20181209205016 49 318 5.0 6.0 0.00 0.01 0.00 78 1025.9
20181209204527 49 317 5.0 6.0 0.00 0.01 0.00 78 1025.9
20181209204019 48 298 5.0 7.0 0.00 0.01 0.00 79 1025.9
20181209203529 49 324 5.0 7.0 0.00 0.01 0.00 78 1026.0
20181209203027 48 330 4.0 6.0 0.00 0.01 0.00 79 1026.0
20181209202520 48 312 5.0 8.0 0.00 0.01 0.00 79 1025.9
20181209202030 48 294 5.0 6.0 0.00 0.01 0.00 80 1025.9
20181209201523 47 306 5.0 6.0 0.00 0.01 0.00 81 1025.9
20181209201033 46 328 5.0 8.0 0.00 0.01 0.00 82 1025.9
20181209200525 46 290 6.0 8.0 0.00 0.01 0.00 82 1025.9
20181209200017 46 331 5.0 8.0 0.00 0.01 0.00 82 1026.0
20181209195528 46 327 5.0 6.0 0.00 0.01 0.00 83 1026.0
20181209195027 45 324 5.0 6.0 0.00 0.01 0.00 84 1026.1
20181209194525 45 331 5.0 6.0 0.00 0.01 0.00 84 1026.1
20181209194024 45 304 5.0 8.0 0.00 0.01 0.00 84 1026.2
20181209193523 45 296 4.0 6.0 0.00 0.01 0.00 85 1026.3
20181209193021 44 279 6.0 8.0 0.00 0.01 0.00 85 1026.3
20181209192520 44 303 6.0 10.0 0.00 0.02 0.00 86 1026.3
20181209192019 44 273 6.0 9.0 0.00 0.02 0.00 86 1026.3
20181209191518 44 288 6.0 10.0 0.00 0.02 0.00 86 1026.3
20181209191016 44 278 7.0 11.0 0.00 0.02 0.00 86 1026.3
20181209190516 44 312 7.0 9.0 0.00 0.02 0.00 86 1026.3
20181209190021 44 317 6.0 7.0 0.00 0.02 0.00 86 1026.3
20181209185532 44 319 5.0 7.0 0.00 0.02 0.00 86 1026.3
20181209185024 44 295 6.0 7.0 0.00 0.02 0.00 85 1026.3
20181209184517 45 300 5.0 8.0 0.00 0.02 0.00 85 1026.3
20181209184028 44 320 4.0 8.0 0.00 0.02 0.00 85 1026.4
20181209183521 44 357 5.0 8.0 0.00 0.02 0.00 85 1026.4
20181209183032 44 306 6.0 10.0 0.00 0.02 0.00 86 1026.4
20181209182524 44 332 6.0 9.0 0.00 0.02 0.00 86 1026.6
20181209182016 44 292 6.0 9.0 0.00 0.02 0.00 85 1026.6
20181209181527 44 320 7.0 12.0 0.00 0.02 0.00 85 1026.7
20181209181031 44 298 7.0 9.0 0.00 0.02 0.00 85 1026.8
20181209180524 44 319 5.0 8.0 0.00 0.02 0.00 86 1026.8
20181209180017 44 312 6.0 9.0 0.00 0.02 0.00 86 1026.9
20181209175527 44 323 7.0 9.0 0.00 0.02 0.00 85 1026.9
20181209175020 44 330 5.0 7.0 0.00 0.02 0.00 86 1026.9
20181209174529 43 281 6.0 8.0 0.00 0.02 0.00 86 1026.9
20181209174022 43 281 5.0 7.0 0.00 0.02 0.00 87 1027.0
20181209173532 43 308 4.0 5.0 0.00 0.02 0.00 87 1027.2
20181209173024 43 7 4.0 6.0 0.00 0.02 0.00 87 1027.2
20181209172517 43 320 4.0 5.0 0.00 0.02 0.00 88 1027.4
20181209172027 42 327 5.0 7.0 0.00 0.02 0.00 88 1027.4
20181209171519 42 316 6.0 8.0 0.00 0.02 0.00 88 1027.5
20181209171030 41 2 7.0 9.0 0.00 0.02 0.00 89 1027.6
20181209170522 41 311 6.0 8.0 0.00 0.02 0.00 89 1027.6
20181209170033 41 280 6.0 8.0 0.00 0.02 0.00 89 1027.6
20181209165524 41 312 7.0 10.0 0.00 0.02 0.00 89 1027.6
20181209165017 42 287 6.0 8.0 0.00 0.02 0.00 89 1027.6
20181209164528 42 322 4.0 7.0 0.00 0.02 0.00 89 1027.6
20181209164020 42 314 5.0 8.0 0.00 0.02 0.00 89 1027.6
20181209163531 42 332 5.0 7.0 0.00 0.02 0.00 89 1027.5
20181209163023 41 341 5.0 7.0 0.00 0.02 0.00 89 1027.5
20181209162515 41 318 5.0 7.0 0.00 0.02 0.00 89 1027.6
20181209162026 41 321 5.0 8.0 0.00 0.02 0.00 90 1027.6
20181209161518 41 293 5.0 7.0 0.00 0.02 0.00 90 1027.6
20181209161022 41 305 6.0 10.0 0.00 0.02 0.00 90 1027.6
20181209160521 41 288 6.0 8.0 0.00 0.02 0.00 90 1027.6
20181209160020 41 293 5.0 8.0 0.00 0.02 0.00 90 1027.5
20181209155518 41 277 5.0 7.0 0.00 0.02 0.00 91 1027.5
20181209155017 41 293 5.0 7.0 0.00 0.02 0.00 91 1027.4
20181209154515 41 276 4.0 7.0 0.00 0.02 0.00 91 1027.4
20181209154021 41 322 4.0 6.0 0.00 0.02 0.00 91 1027.4
20181209153531 41 335 5.0 7.0 0.00 0.02 0.00 91 1027.4
20181209153024 40 295 5.0 6.0 0.00 0.02 0.00 91 1027.4
20181209152516 40 300 5.0 10.0 0.00 0.02 0.00 91 1027.1
20181209152027 40 303 6.0 7.0 0.00 0.02 0.00 91 1027.1
20181209151519 40 309 5.0 7.0 0.00 0.02 0.00 91 1027.0
20181209151031 40 314 4.0 7.0 0.00 0.02 0.00 92 1026.9
20181209150523 40 292 5.0 7.0 0.00 0.02 0.00 92 1026.8
20181209150016 40 300 6.0 8.0 0.00 0.02 0.00 92 1026.6
20181209145526 40 296 5.0 7.0 0.00 0.02 0.00 92 1026.6
20181209145032 40 284 5.0 8.0 0.00 0.02 0.00 92 1026.5
20181209144524 40 306 5.0 7.0 0.00 0.02 0.00 92 1026.5
20181209144016 40 340 4.0 6.0 0.00 0.02 0.00 92 1026.6
20181209143527 39 292 5.0 7.0 0.00 0.02 0.00 92 1026.6
20181209143019 39 299 5.0 6.0 0.00 0.02 0.00 92 1026.6
20181209142530 39 284 5.0 7.0 0.00 0.02 0.00 92 1026.4
20181209142024 39 296 5.0 8.0 0.00 0.02 0.00 92 1026.4
20181209141516 39 294 4.0 6.0 0.00 0.02 0.00 92 1026.5
20181209141026 39 294 5.0 10.0 0.00 0.02 0.00 92 1026.5
20181209140519 39 288 4.0 10.0 0.00 0.02 0.00 92 1026.5
20181209140031 39 304 4.0 6.0 0.00 0.02 0.00 92 1026.5
20181209135522 39 314 5.0 7.0 0.00 0.02 0.00 92 1026.5
20181209135034 39 321 4.0 6.0 0.00 0.02 0.00 92 1026.3
20181209134525 39 324 5.0 6.0 0.00 0.02 0.00 92 1026.2
20181209134019 39 336 5.0 6.0 0.00 0.02 0.00 92 1026.1
20181209133529 39 331 4.0 8.0 0.00 0.02 0.00 92 1026.0
20181209133021 39 328 5.0 6.0 0.00 0.02 0.00 92 1026.0
20181209132532 39 336 5.0 6.0 0.00 0.02 0.00 92 1025.9
20181209132024 39 339 5.0 8.0 0.00 0.02 0.00 92 1025.9
20181209131517 39 312 5.0 6.0 0.00 0.02 0.00 92 1025.9
20181209131027 39 345 5.0 7.0 0.00 0.02 0.00 92 1025.9
20181209130520 39 326 5.0 7.0 0.00 0.02 0.00 92 1025.9
20181209130031 39 295 6.0 9.0 0.00 0.02 0.00 92 1026.0
20181209125523 39 304 6.0 8.0 0.00 0.02 0.00 93 1026.0
20181209125015 39 306 5.0 8.0 0.00 0.02 0.00 93 1025.7
20181209124526 39 307 5.0 8.0 0.00 0.02 0.00 93 1025.6
20181209124018 39 320 5.0 6.0 0.00 0.02 0.00 93 1025.6
20181209123522 39 310 5.0 10.0 0.00 0.02 0.00 93 1025.5
20181209123022 39 300 5.0 7.0 0.00 0.02 0.00 93 1025.5
20181209122520 39 327 4.0 6.0 0.00 0.02 0.00 93 1025.4
20181209122018 39 334 4.0 6.0 0.00 0.02 0.00 93 1025.4
20181209121517 39 308 3.0 5.0 0.00 0.02 0.00 93 1025.4
20181209121016 39 298 5.0 7.0 0.00 0.02 0.00 93 1025.4
20181209120520 39 309 4.0 6.0 0.00 0.02 0.00 93 1025.4
20181209120031 39 308 4.0 6.0 0.00 0.02 0.00 93 1025.3
20181209115524 39 331 4.0 6.0 0.00 0.02 0.00 92 1025.3
20181209115016 39 294 5.0 7.0 0.00 0.02 0.00 92 1025.2
20181209114527 39 305 5.0 7.0 0.00 0.02 0.00 92 1025.2
20181209114019 39 314 4.0 5.0 0.00 0.02 0.00 92 1025.1
20181209113530 39 335 4.0 5.0 0.00 0.02 0.00 92 1025.1
20181209113022 39 338 5.0 7.0 0.00 0.02 0.00 92 1025.1
20181209112533 39 324 5.0 7.0 0.00 0.02 0.00 92 1025.0
20181209112025 39 355 5.0 7.0 0.00 0.02 0.00 92 1025.0
20181209111517 39 312 6.0 9.0 0.00 0.02 0.00 92 1025.0
20181209111028 39 323 6.0 9.0 0.00 0.02 0.00 92 1024.9
20181209110521 39 325 6.0 8.0 0.00 0.02 0.00 92 1024.8
20181209110032 39 326 5.0 8.0 0.00 0.02 0.00 92 1024.7
20181209105525 39 347 6.0 7.0 0.00 0.02 0.00 92 1024.7
20181209105017 39 333 5.0 8.0 0.00 0.02 0.00 93 1024.7
20181209104527 39 315 5.0 7.0 0.00 0.03 0.00 93 1024.7
20181209104020 39 299 4.0 7.0 0.00 0.03 0.00 93 1024.7
20181209103531 39 307 4.0 7.0 0.00 0.03 0.00 93 1024.7
20181209103023 39 308 4.0 6.0 0.00 0.03 0.00 93 1024.7
20181209102516 39 303 4.0 9.0 0.00 0.03 0.00 93 1024.5
20181209102027 39 300 4.0 6.0 0.00 0.04 0.00 93 1024.5
20181209101518 39 313 5.0 7.0 0.00 0.05 0.00 93 1024.5
20181209101029 39 338 6.0 8.0 0.00 0.07 0.00 93 1024.6
20181209100522 39 325 5.0 8.0 0.00 0.08 0.00 93 1024.5
20181209100032 39 321 5.0 7.0 0.00 0.09 0.00 93 1024.4
20181209095525 39 311 6.0 9.0 0.00 0.10 0.00 93 1024.4
20181209095018 39 329 5.0 7.0 0.00 0.10 0.00 93 1024.5
20181209094528 39 329 5.0 7.0 0.00 0.10 0.00 93 1024.6
20181209094021 39 325 6.0 8.0 0.00 0.11 0.00 93 1024.5
20181209093531 39 318 6.0 9.0 0.00 0.12 0.00 93 1024.4
20181209093023 39 309 6.0 9.0 0.00 0.13 0.00 93 1024.4
20181209092517 39 308 5.0 7.0 0.00 0.15 0.00 93 1024.5
20181209092027 39 327 6.0 8.0 0.00 0.17 0.00 92 1024.5
20181209091526 39 329 4.0 6.0 0.00 0.19 0.00 92 1024.4
20181209091024 39 339 5.0 6.0 0.00 0.22 0.00 92 1024.4
20181209090523 39 329 5.0 7.0 0.00 0.26 0.00 92 1024.4
20181209090022 39 321 4.0 6.0 0.00 0.30 0.00 92 1024.3
20181209085520 39 334 4.0 7.0 0.00 0.31 0.00 92 1024.3
20181209085019 39 339 5.0 7.0 0.00 0.34 0.00 92 1024.4
20181209084518 39 324 5.0 6.0 0.00 0.36 0.00 92 1024.4
20181209084016 39 312 5.0 7.0 0.00 0.38 0.00 92 1024.4
20181209083521 39 24 5.0 6.0 0.00 0.41 0.00 92 1024.5
20181209083025 39 320 5.0 6.0 0.00 0.44 0.00 92 1024.5
20181209082518 39 323 5.0 8.0 0.00 0.48 0.00 92 1024.4
20181209082029 39 335 5.0 6.0 0.00 0.51 0.00 92 1024.4
20181209081521 39 322 6.0 7.0 0.00 0.57 0.00 92 1024.3
20181209081032 39 349 5.0 7.0 0.00 0.62 0.00 92 1024.2
20181209080525 39 318 5.0 7.0 0.00 0.66 0.00 92 1024.2
20181209080018 39 318 5.0 7.0 0.00 0.71 0.00 92 1024.1
20181209075529 39 338 6.0 8.0 0.00 0.79 0.00 92 1024.1
20181209075022 39 340 5.0 8.0 0.00 0.86 0.00 92 1024.0
20181209074533 39 327 5.0 10.0 0.00 0.92 0.00 92 1024.0
20181209074024 39 318 6.0 11.0 0.00 0.96 0.00 92 1024.0
20181209073529 39 334 5.0 8.0 0.00 0.98 0.00 92 1024.0
20181209073022 39 341 5.0 7.0 0.00 1.00 0.00 92 1024.0
20181209072531 39 334 5.0 8.0 0.00 1.02 0.00 92 1023.9
20181209072024 39 342 5.0 8.0 0.00 1.04 0.00 92 1023.9
20181209071516 39 330 6.0 9.0 0.00 1.04 0.00 92 1023.9
20181209071027 39 324 6.0 9.0 0.00 1.06 0.00 92 1023.9
20181209070520 39 309 6.0 8.0 0.00 1.06 0.00 93 1023.9
20181209070030 39 314 6.0 8.0 0.00 1.07 0.00 93 1023.9
20181209065524 39 313 5.0 7.0 0.00 1.08 0.00 93 1023.9
20181209065034 39 324 5.0 6.0 0.00 1.09 0.00 93 1023.9
20181209064526 39 323 4.0 6.0 0.00 1.10 0.00 93 1023.9
20181209064018 39 328 5.0 9.0 0.00 1.10 0.00 93 1023.9
20181209063529 39 334 5.0 8.0 0.00 1.12 0.00 93 1024.0
20181209063022 39 314 6.0 8.0 0.00 1.13 0.00 93 1024.0
20181209062531 39 347 5.0 7.0 0.00 1.14 0.00 93 1024.0
20181209062023 39 329 5.0 7.0 0.00 1.14 0.00 93 1024.0
20181209061534 39 313 5.0 9.0 0.00 1.15 0.00 93 1024.0
20181209061025 39 325 5.0 7.0 0.00 1.16 0.00 93 1024.0
20181209060517 39 307 5.0 7.0 0.00 1.16 0.00 93 1024.0
20181209060026 39 323 5.0 7.0 0.00 1.17 0.00 93 1024.1
20181209055518 39 323 4.0 6.0 0.00 1.17 1.17 93 1024.1
20181209055023 39 355 4.0 6.0 0.00 1.17 1.17 93 1023.9
20181209054522 39 342 4.0 6.0 0.00 1.17 1.17 93 1023.9
20181209054021 39 14 4.0 8.0 0.00 1.17 1.17 93 1023.9
20181209053520 39 23 4.0 5.0 0.00 1.18 1.17 93 1024.1
20181209053019 39 4 4.0 6.0 0.00 1.18 1.17 93 1024.1
20181209052516 39 43 5.0 8.0 0.00 1.18 1.17 93 1024.1
20181209052027 39 352 5.0 8.0 0.00 1.18 1.17 93 1024.1
20181209051519 39 60 5.0 7.0 0.00 1.19 1.17 93 1024.1
20181209051030 39 10 6.0 9.0 0.00 1.19 1.17 93 1024.1
20181209050523 39 325 5.0 6.0 0.00 1.20 1.17 93 1024.0
20181209050015 39 313 7.0 9.0 0.00 1.20 1.17 93 1024.0
20181209045526 39 327 5.0 6.0 0.00 1.21 1.17 93 1024.0
20181209045019 39 327 4.0 7.0 0.00 1.22 1.17 93 1023.9
20181209044529 39 327 4.0 6.0 0.00 1.24 1.17 93 1023.9
20181209044022 39 322 3.0 6.0 0.00 1.26 1.17 93 1023.9
20181209043533 39 325 4.0 6.0 0.00 1.28 1.17 93 1023.9
20181209043026 39 340 4.0 5.0 0.00 1.31 1.17 93 1023.9
20181209042518 39 344 3.0 5.0 0.00 1.33 1.17 93 1024.0
20181209042029 39 343 4.0 5.0 0.00 1.34 1.17 93 1024.0
20181209041521 39 359 4.0 5.0 0.00 1.35 1.17 93 1023.9
20181209041031 39 343 3.0 5.0 0.00 1.37 1.17 93 1023.9
20181209040524 39 5 4.0 7.0 0.00 1.38 1.17 93 1023.9
20181209040017 39 353 4.0 7.0 0.00 1.40 1.17 93 1023.9
20181209035527 39 321 5.0 8.0 0.00 1.41 1.17 93 1023.9
20181209035020 39 326 4.0 8.0 0.00 1.42 1.17 93 1023.8
20181209034531 39 354 3.0 5.0 0.00 1.44 1.17 93 1023.8
20181209034023 39 356 3.0 5.0 0.00 1.46 1.17 93 1023.8
20181209033516 39 18 4.0 6.0 0.00 1.47 1.17 93 1023.7
20181209033026 39 330 5.0 9.0 0.00 1.48 1.17 93 1023.7
20181209032519 39 3 4.0 6.0 0.00 1.49 1.17 93 1023.6
20181209032029 39 350 4.0 6.0 0.00 1.50 1.17 93 1023.6
20181209031522 39 5 4.0 6.0 0.00 1.52 1.17 93 1023.5
20181209031032 39 11 4.0 5.0 0.00 1.54 1.17 93 1023.5
20181209030525 39 7 5.0 7.0 0.00 1.56 1.17 93 1023.5
20181209030017 39 6 5.0 8.0 0.00 1.59 1.17 93 1023.5
20181209025528 39 345 4.0 5.0 0.00 1.62 1.17 93 1023.5
20181209025020 39 69 5.0 7.0 0.00 1.64 1.17 93 1023.4
20181209024531 39 335 6.0 9.0 0.00 1.66 1.17 93 1023.4
20181209024023 39 354 5.0 7.0 0.00 1.68 1.17 93 1023.4
20181209023516 39 333 6.0 9.0 0.00 1.70 1.17 93 1023.4
20181209023026 39 358 5.0 7.0 0.00 1.71 1.17 93 1023.4
20181209022525 39 3 5.0 7.0 0.00 1.73 1.17 93 1023.5
20181209022023 39 5 6.0 13.0 0.00 1.74 1.17 93 1023.5
20181209021516 39 330 5.0 6.0 0.00 1.76 1.17 93 1023.4
20181209021020 39 350 6.0 7.0 0.00 1.78 1.17 93 1023.4
20181209020519 39 331 5.0 9.0 0.00 1.79 1.17 93 1023.3
20181209020018 39 4 5.0 8.0 0.00 1.81 1.17 93 1023.2
20181209015517 39 330 6.0 9.0 0.00 1.83 1.17 93 1023.2
20181209015016 39 352 6.0 7.0 0.00 1.85 1.17 92 1023.0
20181209014520 39 335 7.0 10.0 0.00 1.86 1.17 92 1023.0
20181209014031 39 319 6.0 9.0 0.00 1.87 1.17 92 1022.9
20181209013523 39 328 7.0 12.0 0.00 1.88 1.17 92 1022.9
20181209013015 39 325 6.0 9.0 0.00 1.89 1.17 92 1022.9
20181209012526 39 331 6.0 8.0 0.00 1.90 1.17 92 1022.7
20181209012018 39 334 6.0 8.0 0.00 1.91 1.17 92 1022.7
20181209011528 39 329 6.0 9.0 0.00 1.92 1.17 92 1022.5
20181209011021 39 344 6.0 8.0 0.00 1.94 1.17 92 1022.3
20181209010532 39 4 6.0 8.0 0.00 1.95 1.17 92 1022.3
20181209010024 39 344 7.0 9.0 0.00 1.96 1.17 92 1022.0
20181209005517 39 352 5.0 9.0 0.00 1.98 1.17 92 1022.0
20181209005028 39 348 6.0 7.0 0.00 1.99 1.17 92 1021.9
20181209004520 39 18 5.0 8.0 0.00 2.00 1.17 92 1021.8
20181209004032 39 354 5.0 8.0 0.00 2.01 1.17 92 1021.8
20181209003524 39 22 6.0 9.0 0.00 2.02 1.17 92 1021.8
20181209003017 39 358 6.0 9.0 0.00 2.02 1.17 92 1021.8
20181209002527 39 358 6.0 11.0 0.00 2.03 1.17 92 1021.6
20181209002021 39 344 5.0 8.0 0.00 2.04 1.17 92 1021.6
20181209001531 39 348 5.0 8.0 0.00 2.03 1.16 92 1021.6
20181209001023 39 15 4.0 7.0 0.00 2.03 1.16 92 1021.5
20181209000516 39 45 4.0 6.0 0.00 2.04 1.16 92 1021.5